Погода в Томске

Хотите узнать прогноз погоды в Томске? Тогда Вам сюда: Погода в Томске

Поиск расширенной информации на нашем сайте:

Полезная информация:

Новости сайта



02.01.2020
Опубликован Долгосрочный прогноз погоды по городам России и ближнего зарубежья на январь 2020 года.
Карты: Прогноз на январь и февраль 2020 года, Сравнение прогнозируемой аномалии приземной температуры воздуха на январь 2020 года по разным моделям.




Погода в Томске - сегодня

Время (UTC), дата Ветер
(°,м/с) 
Видим.   Явления Облачность Т
(°С)
Тd
(°С)
f(%) Тe
(°С)
Pmin
(гПа)
dP
(гПа)
Po
(мм)
O2
(г/м3)
Тmin Tmax R s Состояние
почвы
12 03.03.21 тихо ()   20000 м    10/0 средняя 
[Ac und]
-9.7 -14.8 66 -10  1019.1  1.1  751  315    -5.6  0.0     
15 03.03.21 180 (Ю) 20000 м    10/0 средняя 
[Ac und]
-10.8 -14.6 74 -11  1019.8  0.7  751  316           
18 03.03.21 тихо ()   20000 м    ясно 
-14 -16.3 83 -14  1020.6  0.5  752  321           
21 03.03.21 160 (Ю) 20000 м    8/0 средняя 
[Ac trans]
-11.8 -14.6 80 -12  1020.7  0.2  752  318           
00 04.03.21 150 (ЮВ) 20000 м    5/0 средняя 
[Ac trans]
-12.3 -15.3 78 -12  1020  -0.8  751  318  -14.4      76  равномерный
сухой снег
100% 
03 04.03.21 160 (Ю) 20000 м  слаб. снег  10/0 средняя 
[As op]
-10 -13.2 77 -10  1018.3  -1.4  750  315           
06 04.03.21 160 (Ю) 20000 м  слаб. снег  10/0 средняя 
[As op]
-7.3 -11.5 72 -7  1017.4  -0.7  750  311           
09 04.03.21 170 (Ю) 20000 м  слаб. снег  10/6 300 м средняя 
[Frnb|As op]
-5 -7.9 80 -5  1016  -1.2  749  308           
12 04.03.21 160 (Ю) 4000 м  слаб. снег  10/8 270 м средняя 
[Sc diur, vesp|As op]
-4.9 -6.4 89 -4  1014.8  -1.2  748  307    -4.6     
15 04.03.21 170 (Ю) 20000 м  слаб. снег  10/8 240 м средняя 
[Sc diur, vesp|As op]
-4.8 -5.6 94 -4  1013.5  -1.3  747  307           
18 04.03.21 160 (Ю) 4000 м  слаб. снег  10/8 270 м средняя 
[Sc diur, vesp|As op]
-4.9 -6.4 89 -4  1014.8  -1.2  748  307    -4.6     
21 04.03.21 150 (ЮВ) 20000 м  слаб. снег  10/8 240 м средняя 
[Frnb|As op]
-4.4 -8.3 74 -6  1012.1  -1.1  746  306           
00 05.03.21 150 (ЮВ) 20000 м  {снег}  10/0 средняя, верхняя 
[As trans|Ci fib]
-5 -11 63 -5  1010.6  -1.5  745  307  -5       
03 05.03.21 150 (ЮВ) 2{10}  20000 м    10/0 средняя 
[Ac und]
-3.2 -11.3 53 -4  1008.6  -1.9  743  304  -5.1         
06 05.03.21 170 (Ю) 20000 м  в посл. час снег  10/0 средняя 
[As op]
-2.9 -7.7 69 -2  1007.5  -1.1  742  303           
09 05.03.21 180 (Ю) 20000 м  в посл. час снег  10/10 500 м 
[Sc]
-2 -6 74 -1  1007.9  0.5  743  302           
12 05.03.21 200 (Ю) 20000 м  в посл. час ливневой снег  9/9 540 м кучево-дожд. 
[Cb cap]
-2.9 -6.1 79 -4  1010.3  2.3  745  304    -1.6  0.9     
15 05.03.21 180 (Ю) 20000 м  слаб. снег  10/6 500 м средняя 
[Sc|As op]
-4.4 -5.9 89 -4  1011.5  1.1  745  306           
18 05.03.21 190 (Ю) 2000 м  снег  10/10 270 м 
[Frnb|Ns]
-4.5 -5.2 95 -4  1010.9  -0.6  745  306           
21 05.03.21 180 (Ю) 20000 м  слаб. снег  10/10 300 м 
[Frnb|Ns]
-3.8 -5.8 86 -5  1012  1.1  746  305           
00 06.03.21 190 (Ю) 10 км  слаб. снег  10/10 270 м 
[Frnb|Ns]
-4.7 -5.4 95 -6  1012.2  0.2  746  306  -4.8    80  равномерный
сухой снег
100% 
03 06.03.21 160 (Ю) 20000 м  слаб. снег  10/10 300 м 
[Frnb|Ns]
-5.1 -5.9 94 -5  1011.3  -0.9  745  307  -5.1         
06 06.03.21 150 (ЮВ) 20000 м  позёмок{снег}  10/0 верхняя 
[Cs]
-3.2 -8.5 67 -4  1008.3  -2.9  743  304           
09 06.03.21 180 (Ю) 2{11}  10 км  слаб. снег  10/0 средняя 
[As op]
-3.5 -5.3 87 -5  1006.9  -1.3  742  303           
12 06.03.21 180 (Ю) 20000 м  слаб. снег  10/8 270 м средняя 
[Frnb|As op]
-3.5 -4.4 93 -5  1006.3  -0.7  742  303    -2.7     
Время (UTC), дата Ветер
(°,м/с) 
Видим.   Явления Облачность Т
(°С)
Тd
(°С)
f(%) Тe
(°С)
Pmin
(гПа)
dP
(гПа)
Po
(мм)
O2
(г/м3)
Тmin Tmax R s Состояние
почвы

Для получения пояснительной информации подведите курсор к названию столбца.

ПОГОДА в Томске - архив

Всё, что Вы хотите узнать о погоде в Томске - удобно и подробно!

Выберите нужную дату (начиная с 1 января 2019* года) и нажмите кнопку "Найти".
Будут отображены архивные сводки погоды по пункту Томск, начиная с указанной даты.


Отображать данные в формате CSV (для использования в таблицах Excel)


Внимание! Наш архив погоды предназначен исключительно для личного некоммерческого использования в познавательных целях. Если Вам необходимы официальные справки о состоянии погоды (для производственных, юридических, коммерческих и т.п. целей), обращайтесь в органы Росгидромета.

*Примечание: данная дата относится к архиву по метеостанциям СССР (Россия, СНГ, Балтия).
Архив по метеостанциям Зарубежной Европы и Азии (кроме Китая) хранится 10 дней, по другим регионам земного шара (Китай, Африка, Америка, Австралия, Океания) - 1 день.

Томск - район местоположения метеостанции


Название, широта, долгота, высота метеостанции:
Томск 56.5°ш. 84.9°д. 139 м над ур. моря [Российская Федерация]

Дополнительная информация

В oтличие oт бoльшинства пoгoдных сайтoв мы публикуем пoдрoбную метеoинфoрмацию в детальнoм прoфессиoнальнoм фoрмате.

Характеристики температуры и влажнoсти вoздуха измеряются на высoте 2 м в тени вдали oт зданий и деревьев.
Скoрoсть ветра измеряется на высoте 10 м (на урoвне рoста челoвека скoрoсть ветра ниже в 1.5-2 раза). Если метеoстанция нахoдится в гoрoде или в лесу, тo скoрoсть ветра занижена на 2-4 м/с пo сравнению с oткрытым местoм. Скoрoсть ветра над акватoриями крупных рек и oзёр, а также на вершинах хoлмoв на 2-5 м/с выше, чем в oбычных услoвиях.
Атмoсфернoе давление в разных тoчках местнoсти мoжет значительнo oтличаться oт давления на метеoстанции, в зависимoсти oт услoвий рельефа (при пoдъёме на 10 м давление пoнижается примернo на 1 мм рт.ст.).